Вернуться в каталог

OPS 5960 DEB

АктивенMEO
NORAD 43000·DEBRIS·🇺🇸 United States

Запущен Nov 6, 1970 с Cape Canaveral Space Force Station

Loading…

Ближайшие Пролёты (ближайшие 24 часа)

TLE

СвежийSource: Space-Track

Эпоха: Sep 4, 2026, 17:57 UTC

1 43000U 70093D   26247.74793572 -.00000136  00000-0  00000-0 0  9992
2 43000  15.3322  34.3474 1181430 271.0638  75.4888  1.20555416 46587

Отслеживайте OPS 5960 DEB в реальном времени с AllMySat

Download on the App Store